Location: *
(51.8167°N, 12.5000°E)
Time: 01:40:21
(UTC+00:00)

CZ-2C R/B - Pass Details

Date: 16 September 2019
Orbit: 705 x 907 km, 98.1° (Epoch: 15 October)

Event Time Altitude Azimuth Distance (km) Brightness Sun altitude
Exits shadow 19:04:04 20° 146° (SSE) 1,755 4.4 -15.8°
Maximum altitude 19:07:38 64° 70° (ENE) 902 3.1 -16.3°
Drops below altitude 10° 19:13:05 10° 350° (N) 2,486 6.1 -17.0°
Sets 19:15:33 0° 348° (NNW) 3,455 7.0 -17.4°
